Regional Weather Roundup
Issued by NWS

Home | Current Version | Previous Version | Graphics & Text | Print | Product List | Glossary On
Versions: 1 2 3 4 5 6 7 8 9 10 11 12 13 14 15 16 17 18 19 20 21 22 23 24 25 26 27 28 29 30 31 32 33 34 35 36 37 38 39 40 41 42 43 44 45 46 47 48 49 50
000
ASUS43 KFSD 301810
RWRSD

WEATHER ROUNDUP FOR SOUTH DAKOTA
NATIONAL WEATHER SERVICE SIOUX FALLS SD
100 PM CDT SAT MAY 30 2015

NOTE: "FAIR" INDICATES FEW OR NO CLOUDS BELOW 12,000 FEET WITH NO
SIGNIFICANT WEATHER AND/OR OBSTRUCTIONS TO VISIBILITY.


SDZ001>005-009-010-012>017-301900-
NORTHWEST AND NORTH CENTRAL SOUTH DAKOTA

CITY           SKY/WX    TMP DP  RH WIND       PRES   REMARKS
BUFFALO          N/A     58  38  47 SE22G33   30.15F
FAITH            N/A     54  37  52 SE13      30.29F
MOBRIDGE       MOSUNNY   54  34  46 SE8       30.32F
$$

SDZ012>016-024>037-041>051-057-063-072>074-301900-
SOUTHWEST AND SOUTH CENTRAL SOUTH DAKOTA

CITY           SKY/WX    TMP DP  RH WIND       PRES   REMARKS
RAPID CTY ARPT MOSUNNY   58  44  60 S16G26    30.25F
PIERRE         MOSUNNY   54  37  52 NE8G16    30.32F
CUSTER         PTSUNNY   49  41  74 S8        30.27S
ELLSWORTH AFB  MOSUNNY   57  44  61 S17G29    30.24F
PHILIP         SUNNY     56  38  50 SE12G18   30.30F
PINE RIDGE     SUNNY     58  36  43 VRB6      30.26F
SPEARFISH      FAIR      61  48  63 E9        30.19F
WINNER         FAIR      57  33  40 NE12      30.32F
$$

SDZ004>011-016>023-039-040-301900-
NORTHEAST SOUTH DAKOTA

CITY           SKY/WX    TMP DP  RH WIND       PRES   REMARKS
ABERDEEN       SUNNY     51  31  46 N10       30.35F
WATERTOWN      SUNNY     54  38  54 NE14      30.31S
BROOKINGS      MOSUNNY   50  37  62 N16       30.30F
SISSETON         N/A     50  37  61 N12       30.34S
$$

SDZ017-020-022-023-036>040-048>070-301900-
SOUTHEAST SOUTH DAKOTA

CITY           SKY/WX    TMP DP  RH WIND       PRES   REMARKS
SIOUX FALLS    MOSUNNY   56  43  61 NE12      30.27F
HURON          SUNNY     57  38  48 N12G18    30.32F
CHAMBERLAIN    SUNNY     53  36  51 N5        30.32F
MITCHELL       SUNNY     58  39  49 NE12G17   30.31F
YANKTON        SUNNY     57  41  54 N12       30.27F
$$

ABBREVIATIONS USED IN REMARKS
   TC - TEMPERATURE IN CELSIUS
  WCI - WIND CHILL INDEX
   HX - HEAT INDEX
  VSB - VISIBILITY




USA.gov is the U.S. government's official web portal to all federal, state and local government web resources and services.